Home > Weather > Judenburg > Past weeks

Flag for Austria Past Weather in Judenburg, Styria, Austria — Yesterday and Last 2 Weeks

Now
63 °F

Passing clouds.


Feels Like: 63 °F
Forecast: 59 / 72 °F
Wind: 3 mph from North

Location: Zeltweg

Current Time: Jun 25, 2016 at 7:12:03 AM

Latest Report: Jun 25, 2016 at 5:50 AM


Visibility: 15 mi

Pressure: 30.04 "Hg (27.54 "Hg at 739m altitude)

Humidity: 94%

Dew Point: 61 °F

Location of JudenburgLocation

Past Weather in Judenburg — Graph

°F

Judenburg Temperature Yesterday

Maximum temperature yesterday: 86 °F (at 2:50 PM)
Minimum temperature yesterday: 61 °F (at 5:50 AM)
Average temperature yesterday: 78 °F

High & Low Weather Summary for the Past Weeks

 TemperatureHumidityPressure
High86 °F (Jun 24, 2:50 PM)100% (Jun 10, 5:50 AM)30.36 "Hg (Jun 10, 5:50 AM)
Low48 °F (Jun 21, 4:50 AM)31% (Jun 17, 12:50 PM)29.56 "Hg (Jun 15, 4:50 AM)
Average64 °F69%29.96 "Hg
* Reported Jun 10 5:50 AM — Jun 25 5:50 AM, Judenburg, Weather by CustomWeather, © 2016

Note: Actual official high and low records may vary slightly from our data, if they occured in-between our weather recording intervals... More about our weather records

Advertising

Judenburg Weather History for the Previous 24 Hours

Scroll right to see more
 ConditionsComfort  
Time TempWeatherWind HumidityBarometerVisibility
5:50 AM
Sat, Jun 25
63 °FPassing clouds.3 mph94%30.04 "Hg16 mi
10:50 PM
Fri, Jun 24
70 °FPassing clouds.5 mph78%30.09 "Hg12 mi
9:50 PM75 °FPartly sunny.3 mph65%30.09 "Hg12 mi
8:50 PM77 °FPartly sunny.3 mph61%30.09 "Hg16 mi
7:50 PM79 °FPassing clouds.7 mph54%30.07 "Hg16 mi
6:50 PM82 °FPassing clouds.7 mph51%30.07 "Hg16 mi
5:50 PM82 °FScattered clouds.12 mph48%30.07 "Hg16 mi
4:50 PM84 °FPassing clouds.9 mph45%30.07 "Hg16 mi
4:20 PM86 °FPassing clouds.7 mph46%30.07 "Hg16 mi
3:50 PM84 °FPassing clouds.10 mph48%30.09 "Hg16 mi
3:20 PM84 °FPassing clouds.12 mph48%30.09 "Hg16 mi
2:50 PM86 °FPassing clouds.6 mph43%30.09 "Hg16 mi
2:20 PM84 °FPassing clouds.5 mph45%30.09 "Hg16 mi
1:50 PM84 °FPassing clouds.2 mph48%30.12 "Hg16 mi
1:20 PM84 °FPassing clouds.5 mph45%30.12 "Hg16 mi
12:50 PM82 °FPassing clouds.3 mph48%30.12 "Hg16 mi
12:20 PM82 °FPassing clouds.2 mph48%30.15 "Hg16 mi
11:50 AM82 °FPassing clouds.3 mph51%30.15 "Hg16 mi
11:20 AM81 °FPassing clouds.3 mph58%30.15 "Hg16 mi
10:50 AM81 °FPassing clouds.3 mph58%30.15 "Hg12 mi
10:20 AM79 °FScattered clouds.1 mph65%30.18 "Hg12 mi
9:50 AM75 °FScattered clouds.1 mph69%30.18 "Hg12 mi
9:20 AM72 °FPassing clouds.2 mph73%30.18 "Hg12 mi
8:50 AM70 °FPassing clouds.2 mph78%30.18 "Hg12 mi
8:20 AM68 °FPassing clouds.2 mph83%30.18 "Hg12 mi
7:50 AM68 °FPassing clouds.2 mph83%30.21 "Hg12 mi
7:20 AM64 °FPassing clouds.2 mph88%30.21 "Hg12 mi
Weather by CustomWeather, © 2016

See weather overviewHow to use our weather pages